GFSWCAN_850_thetae_132.txt.gz
Theta_e
296 296 298 297 297 297 297 298 297 298 298 297 298 298 299 299 299 300 301 301 301 299 301 303 304 305 305 303 308 309 310 309 308 308 310 311 308 308 307 306 306 307 307 307 307 310 313 309 308 310 311 310 311 310
295 296 296 296 296 297 297 297 297 297 297 297 298 298 299 299 300 300 301 301 301 301 300 302 303 304 304 305 305 308 310 307 305 309 310 309 307 304 308 307 303 309 307 307 308 309 309 310 311 312 313 313 312 313
295 296 296 295 297 296 296 297 297 297 297 297 298 298 299 299 299 299 300 301 300 301 301 301 302 304 305 306 305 307 307 308 307 309 309 308 309 304 308 306 305 304 303 306 308 308 306 311 312 313 312 314 314 314
295 295 295 296 296 296 296 297 296 297 297 296 298 298 299 299 299 299 300 300 301 300 300 302 303 303 305 305 307 307 306 307 308 308 307 309 308 305 307 308 307 305 304 304 305 305 309 309 312 314 313 313 314 314
294 295 295 295 295 295 296 296 296 296 296 296 298 298 298 298 298 299 299 299 300 301 301 301 302 304 303 304 305 306 306 306 308 307 309 309 305 306 301 303 304 302 304 309 308 308 311 312 315 313 314 314 314 314
294 294 294 295 295 295 296 296 296 295 296 297 297 297 298 298 298 299 299 299 299 300 300 303 302 302 306 306 305 306 306 306 308 308 309 309 307 306 304 305 305 308 309 311 308 313 313 314 315 314 315 315 314 314
294 294 294 294 294 295 295 295 295 295 297 297 297 297 297 298 298 299 299 301 301 300 301 302 302 304 306 307 307 307 307 308 308 308 306 305 306 307 303 309 306 308 310 311 312 313 310 313 315 315 315 315 315 314
294 294 294 294 294 295 295 294 294 296 296 297 296 297 297 297 298 299 299 300 302 302 301 303 302 303 306 307 308 309 309 309 308 309 305 307 305 303 303 306 311 310 312 311 311 312 314 314 314 315 315 314 314 314
294 294 294 294 294 294 294 294 295 296 296 297 297 297 297 298 298 298 298 299 299 300 300 300 301 299 305 307 308 309 309 307 305 308 308 306 307 307 305 304 310 312 310 311 312 311 312 313 314 314 314 314 314 315
294 293 294 294 293 294 294 294 295 295 295 297 297 297 298 299 298 299 299 299 299 300 299 301 302 303 305 305 306 307 302 306 307 307 308 307 309 309 308 308 310 312 313 312 311 308 310 311 312 313 313 314 313 313
293 293 294 294 294 294 294 295 295 295 295 296 297 298 298 299 299 299 299 300 300 297 297 300 302 304 304 306 306 305 306 303 309 310 308 308 309 309 309 309 309 309 309 309 310 312 313 313 313 313 313 313 313 313
294 293 294 294 294 294 294 294 295 295 295 296 298 298 298 298 298 297 299 298 296 296 298 302 303 304 305 305 305 304 307 305 310 305 307 307 306 310 309 309 309 309 310 310 310 310 311 312 312 313 313 313 313 314
293 293 294 294 294 294 294 294 294 295 295 296 297 298 297 297 298 299 297 301 299 299 300 303 304 304 304 305 305 304 305 307 303 307 307 305 302 309 310 309 309 310 310 310 310 310 310 310 311 311 312 312 312 313
294 294 294 294 294 294 294 293 294 294 295 296 296 298 297 297 292 293 297 300 300 300 300 303 305 305 302 304 304 306 305 303 307 308 305 303 304 309 310 310 309 309 309 309 309 310 310 309 310 311 311 311 312 312
293 294 294 294 294 294 294 294 294 294 295 296 297 297 297 295 296 299 299 299 300 301 303 304 304 304 304 305 303 305 307 308 307 304 302 304 306 305 306 307 307 308 309 309 309 309 308 308 309 310 310 311 311 311
294 294 294 294 294 294 294 294 295 295 296 296 296 297 295 296 294 300 300 301 301 302 304 304 303 305 305 304 306 305 308 305 303 300 304 305 305 306 307 307 307 307 308 309 309 309 309 309 308 308 309 310 310 310
293 294 294 294 293 294 294 294 295 296 295 296 296 296 296 296 296 298 300 302 303 303 304 303 305 304 303 304 303 301 303 302 302 303 305 305 306 306 306 307 308 308 308 309 309 308 309 309 308 308 307 308 310 309
294 293 293 293 295 295 295 295 295 295 295 295 296 296 296 296 298 299 300 302 303 301 302 303 303 303 302 304 304 300 300 303 303 303 304 306 306 306 306 307 307 308 309 308 308 308 307 307 308 307 307 308 308 308
293 295 295 296 296 296 295 295 296 294 295 295 296 296 297 298 299 299 300 300 302 302 301 299 302 302 303 301 304 304 303 303 303 303 304 306 306 306 305 306 307 308 308 307 308 308 308 307 307 307 307 307 307 307
297 297 297 297 296 295 295 294 295 295 291 296 296 297 298 299 299 300 299 300 301 300 298 298 296 299 303 303 304 304 302 301 301 303 303 305 306 306 304 305 307 307 307 306 307 307 307 307 306 306 306 306 306 306
297 296 295 296 297 296 295 295 295 297 297 296 297 298 298 299 299 299 300 299 299 295 297 297 298 300 301 300 299 298 298 299 300 303 303 302 306 307 304 304 306 306 306 306 306 307 306 306 307 307 307 307 307 307
296 295 296 297 297 295 295 295 297 297 297 297 297 297 297 296 298 298 298 298 296 299 299 298 298 298 298 298 298 298 298 298 298 303 303 303 304 306 306 304 305 305 306 306 306 305 305 305 306 306 306 306 305 305
296 297 297 298 296 296 296 296 296 297 295 297 296 290 288 291 297 299 296 297 298 299 298 298 298 298 298 298 298 298 298 298 300 303 303 303 303 305 305 304 305 305 305 305 305 305 305 305 305 305 305 305 305 305
297 297 297 295 294 294 296 295 295 295 297 293 295 291 290 290 297 298 297 295 298 299 298 298 298 298 298 298 298 298 298 299 299 304 303 304 303 304 304 305 305 305 304 305 305 305 305 305 305 305 305 305 304 304
296 294 295 292 292 295 295 295 296 296 295 296 293 290 292 296 297 295 297 295 297 298 298 298 298 298 298 298 298 298 298 298 299 302 304 304 304 303 303 307 304 304 304 304 304 304 304 305 304 304 304 304 304 304
294 292 291 290 292 291 295 295 295 296 296 296 296 292 296 298 297 295 295 297 297 298 300 300 299 299 298 298 298 298 298 298 299 301 304 305 304 303 303 304 305 304 304 304 304 304 304 304 304 303 303 303 304 304
290 290 294 294 294 294 293 293 294 295 296 292 291 296 296 290 293 295 297 297 300 299 299 300 300 301 301 301 299 300 299 298 299 300 302 304 305 304 303 303 305 305 304 304 304 304 304 303 303 303 303 303 303 304
293 295 296 294 294 294 292 294 295 295 294 293 294 296 296 295 294 297 298 299 299 299 299 299 299 299 300 302 302 301 299 299 300 302 303 304 305 304 303 303 303 304 304 304 304 304 303 304 303 303 303 303 303 304
294 295 295 295 295 293 292 295 294 295 296 295 295 295 295 296 297 298 300 300 300 299 298 298 299 299 300 302 301 300 299 300 300 303 304 305 305 305 304 303 303 303 305 304 304 304 304 303 303 303 303 303 303 303
293 294 294 293 291 291 294 296 296 296 296 297 297 297 297 298 298 298 298 298 299 299 299 299 298 299 299 301 301 301 300 301 301 301 303 305 305 304 304 303 303 302 303 303 304 304 303 303 303 303 303 303 303 303
294 294 294 294 293 294 295 295 295 295 295 295 296 296 297 297 297 297 298 298 298 298 298 298 299 300 299 299 301 302 301 301 301 302 303 305 304 303 303 303 303 302 302 303 304 304 303 303 303 303 303 303 304 303
294 294 294 295 292 295 295 295 295 295 295 294 295 295 295 295 295 298 298 298 298 298 298 298 298 299 298 299 300 302 302 302 302 303 304 305 303 303 303 303 303 302 302 302 303 303 303 303 303 303 303 303 303 303
294 294 294 295 295 290 294 294 292 289 291 290 293 294 294 295 295 298 298 298 298 298 298 299 299 299 299 299 300 300 301 302 302 303 304 303 303 303 303 306 303 302 302 302 302 302 303 303 303 303 303 303 303 303

GFSWCAN_850_thetae_135.txt.gz
Theta_e
294 294 295 295 296 296 297 298 298 298 298 298 298 297 298 299 299 299 299 300 300 299 300 301 302 303 303 303 305 306 309 309 307 309 311 310 311 310 311 307 307 309 309 309 308 311 314 308 308 313 313 310 311 309
294 294 294 296 296 298 297 296 298 298 298 297 296 296 298 297 298 299 300 300 300 301 300 301 301 301 302 303 304 303 302 306 306 308 308 310 309 306 311 311 303 310 310 309 311 312 310 309 311 311 312 312 311 312
294 293 294 295 295 296 296 297 297 297 298 297 297 296 297 298 299 299 300 300 301 301 300 301 301 301 301 302 304 304 304 303 306 308 307 309 309 305 309 310 307 305 303 309 309 309 308 311 312 313 313 313 313 313
294 293 294 295 295 296 296 296 296 297 297 297 297 296 297 298 298 299 299 300 300 299 300 300 301 302 302 302 303 304 304 305 305 307 308 309 309 306 308 308 309 306 304 305 306 306 308 308 312 314 313 313 313 313
293 293 294 295 295 295 295 296 296 297 296 297 296 296 297 298 299 299 299 299 299 300 300 301 301 302 302 303 304 305 305 305 305 305 307 307 306 305 302 303 304 302 305 310 312 308 311 313 314 314 313 314 314 314
293 294 294 294 295 295 295 295 295 296 296 296 296 297 297 298 298 299 299 299 299 299 299 302 301 302 302 303 303 304 306 306 306 305 306 308 308 307 306 306 304 307 308 311 308 314 315 315 315 315 314 314 314 314
293 294 294 294 294 294 294 294 295 295 295 296 296 297 298 298 298 298 299 300 300 299 300 302 301 302 303 305 304 304 304 306 306 306 307 306 306 308 305 305 306 306 310 311 312 313 311 313 313 315 314 315 314 314
293 293 294 294 295 295 294 295 295 294 295 295 296 297 297 298 298 298 298 299 300 300 300 299 298 301 304 305 305 305 306 306 307 306 307 307 306 305 308 305 309 309 309 308 310 312 313 314 313 314 314 313 313 314
293 294 294 294 294 294 295 295 294 295 295 296 296 297 297 297 298 298 298 298 298 299 299 300 301 300 304 306 306 307 307 307 306 306 307 306 307 309 308 305 308 310 309 310 310 309 311 312 312 313 313 311 314 314
293 293 294 294 294 294 293 294 294 295 295 295 296 297 297 298 298 298 299 298 299 299 298 299 300 298 303 305 303 305 304 307 306 306 308 306 308 308 308 309 310 310 310 311 308 307 308 311 312 313 314 314 314 315
292 294 294 294 293 293 294 294 294 295 295 295 297 297 298 298 298 298 299 298 298 298 297 298 300 298 303 302 305 305 305 304 308 308 309 309 309 309 308 309 309 310 311 312 311 312 312 311 312 313 313 314 314 314
293 294 294 293 293 294 294 294 295 295 294 296 296 295 297 298 298 298 298 296 298 295 293 298 300 301 303 305 303 304 305 305 307 305 308 308 305 309 309 308 309 308 308 310 310 311 312 311 311 312 313 313 313 313
293 294 293 293 293 293 294 294 294 294 295 295 296 296 296 297 298 296 289 297 294 297 299 301 303 304 304 303 303 303 305 304 303 307 307 306 305 307 308 308 308 310 309 309 309 309 310 311 311 311 312 312 313 313
293 293 293 293 293 293 293 293 294 294 294 295 294 292 298 293 290 288 290 295 299 300 300 301 303 303 303 302 303 306 304 303 306 307 306 303 305 304 305 308 308 308 309 310 310 310 310 310 310 310 311 311 311 312
293 293 293 294 294 293 293 293 294 294 294 295 295 297 292 294 295 297 298 298 299 300 300 302 303 303 304 304 303 305 306 306 303 307 303 302 304 304 305 306 307 308 308 309 309 309 309 309 309 309 310 310 310 311
293 293 294 294 293 293 293 294 294 294 294 295 295 295 296 295 296 296 298 298 299 300 300 302 303 305 305 303 305 306 305 305 303 301 304 304 305 305 305 305 307 307 308 309 309 309 310 310 310 310 311 310 310 310
293 294 293 293 293 294 294 294 293 294 295 292 294 296 296 296 295 296 297 300 301 300 303 302 303 305 304 304 304 303 304 303 303 303 303 303 303 304 304 305 305 306 307 308 308 308 308 309 309 309 309 309 309 309
293 293 293 294 294 293 294 294 294 294 292 293 295 295 296 296 296 297 298 299 300 300 300 304 301 303 302 302 304 300 299 302 303 304 304 303 305 304 303 304 306 307 308 308 307 308 307 308 308 309 309 308 308 308
294 294 294 294 294 294 294 294 294 293 293 294 294 295 295 296 297 298 298 298 299 300 299 300 303 300 302 301 305 303 302 301 300 301 304 303 303 304 303 304 305 305 306 307 307 308 308 308 308 308 308 308 307 307
293 293 293 294 294 294 294 293 294 295 293 294 295 296 296 298 298 299 299 299 299 300 299 300 299 300 302 303 303 303 299 299 299 300 303 304 304 304 304 304 305 305 306 306 306 307 307 306 305 305 306 306 306 305
295 296 297 297 295 295 294 293 294 295 296 294 296 296 297 298 298 299 299 299 298 294 297 297 298 301 301 300 299 299 298 298 297 298 300 303 304 304 305 303 305 305 305 304 306 306 306 306 306 305 305 306 306 306
295 296 296 296 296 295 295 294 295 295 296 296 296 297 296 297 298 299 299 299 297 299 299 298 298 298 298 298 298 298 298 298 298 299 303 303 303 304 305 303 304 305 305 304 304 305 305 305 306 305 305 305 305 305
296 296 297 297 295 295 295 296 296 296 293 293 296 296 290 291 296 297 297 297 298 299 299 298 298 298 298 298 298 297 298 298 298 300 303 303 303 303 304 304 304 304 305 305 304 304 305 305 306 306 306 305 304 304
296 297 297 295 294 294 295 293 295 294 295 296 295 290 290 290 296 297 297 295 298 298 298 298 298 298 298 297 297 297 298 298 298 299 302 303 304 303 304 304 304 304 305 305 304 303 304 304 304 305 304 305 304 304
296 294 294 288 293 294 295 295 295 295 292 291 287 288 291 295 295 295 296 295 297 298 297 297 298 298 298 298 297 297 298 298 298 298 301 303 304 303 302 304 303 303 304 305 304 304 303 303 304 304 304 304 304 304
294 292 291 289 291 292 295 294 293 295 295 295 295 292 295 293 291 293 294 296 297 297 297 298 299 299 298 298 298 297 298 298 297 298 300 303 304 304 303 303 304 304 304 305 304 304 304 303 304 304 304 304 304 304
288 289 294 293 293 293 292 293 295 294 295 292 293 296 296 292 292 294 296 297 297 298 299 299 299 299 299 299 300 300 299 299 298 297 299 301 303 304 304 303 304 305 304 305 304 303 304 304 303 304 304 304 304 304
293 295 295 293 294 294 291 294 294 294 293 293 294 296 293 293 294 296 297 297 299 299 299 299 298 298 298 299 299 301 301 300 299 298 299 300 302 304 304 303 303 305 305 305 304 303 303 303 303 303 303 304 303 303
294 294 295 291 294 293 291 293 293 294 295 294 294 294 294 296 296 297 298 299 299 299 299 299 298 298 298 298 299 300 302 301 299 298 299 299 302 304 304 303 303 304 308 305 304 303 303 303 303 303 303 303 303 303
293 294 293 293 292 291 293 295 295 296 296 296 296 296 296 297 297 298 298 298 298 298 298 298 298 298 298 298 298 300 301 301 299 299 299 299 300 304 304 303 303 303 304 305 304 303 302 302 302 302 303 303 303 303
293 293 293 293 290 293 294 294 295 295 294 295 296 295 296 296 296 296 297 297 297 297 297 297 298 298 298 299 299 300 301 301 299 299 300 300 301 304 305 304 303 303 303 303 303 304 303 303 302 302 302 303 303 304
293 293 294 294 289 294 294 294 294 294 294 293 294 294 294 295 294 297 297 297 297 297 297 298 298 299 299 299 299 299 299 301 301 300 300 300 301 304 304 304 303 303 303 302 303 303 303 303 303 303 302 303 303 303
294 294 294 294 293 290 293 293 291 288 290 290 292 293 294 294 294 297 297 297 297 297 297 297 297 298 298 299 299 299 299 301 302 302 301 301 302 304 304 303 304 303 302 302 302 303 303 303 303 303 303 303 303 303

GFSWCAN_850_thetae_141.txt.gz
Theta_e
295 295 295 295 295 295 295 296 295 296 296 297 297 299 298 298 299 299 299 299 299 300 299 299 299 300 300 301 304 301 303 304 305 306 307 307 308 308 308 311 314 314 315 314 314 318 321 316 315 318 320 319 319 320
295 295 295 295 295 295 296 295 295 296 296 296 297 299 298 298 297 298 299 300 299 300 300 299 299 299 300 300 300 302 303 304 305 307 307 308 309 310 312 313 313 315 315 316 316 318 318 314 316 315 314 318 317 319
295 295 295 295 295 295 295 294 296 296 296 296 298 298 298 297 296 297 298 299 299 299 299 299 300 300 300 300 300 301 302 303 303 303 303 306 311 311 313 314 312 315 315 316 317 318 318 315 314 314 314 315 315 316
294 294 294 295 295 295 295 295 295 296 295 296 297 298 297 297 297 297 297 298 299 299 300 300 301 300 301 300 301 301 302 303 304 304 304 306 306 305 314 312 314 314 315 315 316 317 317 317 313 313 313 312 313 313
294 294 294 294 294 295 294 295 295 295 295 296 297 298 298 296 296 297 297 298 299 299 300 300 301 301 302 302 302 302 302 303 303 304 304 307 306 307 310 312 312 313 314 315 315 316 317 317 316 313 313 313 313 312
294 294 294 294 295 295 295 295 295 295 295 296 296 297 296 296 296 297 299 299 299 299 298 301 300 301 302 303 303 303 303 302 303 303 304 304 305 307 308 313 311 311 312 313 315 315 316 316 314 316 314 313 314 313
293 293 294 295 294 295 295 294 294 295 295 295 295 295 295 295 296 298 298 300 300 300 299 301 302 302 302 303 303 303 303 303 303 304 304 305 306 307 308 309 310 311 311 312 312 314 313 313 314 313 314 314 314 313
293 294 294 294 294 294 294 294 294 295 295 295 294 295 295 295 296 297 297 297 298 300 299 302 301 303 303 303 303 303 304 304 304 304 304 305 306 306 309 309 308 308 311 311 311 311 312 314 313 312 312 313 314 313
293 294 294 294 294 294 294 294 294 295 294 294 294 295 295 296 297 298 297 298 298 298 300 301 302 302 304 304 303 304 304 306 304 307 306 307 307 309 308 308 308 308 309 311 312 312 311 311 312 311 312 313 314 314
293 293 293 294 294 293 294 295 295 294 294 294 294 296 297 297 297 297 298 298 299 299 298 301 301 302 303 304 305 305 305 306 307 306 306 306 308 306 306 306 307 308 309 309 310 312 312 311 311 311 311 312 313 314
293 293 293 293 293 293 294 293 294 294 294 295 296 296 296 297 298 298 299 300 299 299 298 299 300 301 301 303 304 304 306 306 308 307 307 307 307 307 306 306 306 307 307 309 309 310 312 312 312 311 310 311 312 313
293 293 293 293 293 293 293 293 294 294 295 295 295 295 296 297 298 300 300 300 300 300 301 300 300 300 300 302 303 304 305 306 306 307 308 307 307 307 307 307 307 307 307 308 308 309 310 312 312 311 311 311 311 311
293 293 293 292 293 293 293 294 294 294 294 295 295 295 295 297 300 299 299 301 300 301 301 300 301 301 301 303 304 304 305 304 306 306 305 306 306 306 308 308 309 309 309 308 308 309 310 310 311 311 311 311 311 311
292 292 292 293 294 293 293 294 294 294 294 295 296 297 298 298 299 300 300 300 301 301 302 301 302 303 302 303 304 304 304 305 304 304 303 305 305 306 307 307 307 307 308 310 309 309 310 310 311 311 311 311 310 310
292 292 293 293 293 293 293 294 294 294 295 295 295 296 298 299 298 299 299 300 300 301 300 302 302 303 304 303 303 303 304 304 305 304 304 304 307 308 307 307 308 308 307 308 310 310 309 309 309 310 310 310 310 311
292 292 293 293 293 293 293 294 294 295 294 294 294 295 296 298 300 299 297 298 299 300 300 301 300 303 303 304 305 303 304 304 304 305 308 307 307 307 307 306 306 306 306 306 309 310 310 309 309 309 309 310 310 311
292 293 292 293 293 293 293 294 293 294 294 293 293 294 295 297 298 298 298 299 300 300 302 302 304 303 304 304 305 304 304 303 304 307 307 307 306 305 305 305 304 304 304 305 306 309 310 310 309 308 309 309 309 310
293 293 292 293 293 293 293 293 293 293 293 294 295 295 296 296 297 297 298 298 299 299 300 302 300 304 305 305 304 305 305 306 306 306 307 306 305 304 303 303 303 303 303 304 305 306 309 310 309 308 309 309 309 309
293 293 292 292 293 293 293 293 293 295 294 293 294 294 295 296 296 296 297 297 297 298 299 300 303 303 303 304 307 306 305 305 304 303 303 304 304 304 303 303 303 303 303 303 304 305 306 308 309 309 309 309 309 309
292 292 292 292 293 293 293 293 293 293 295 295 294 295 295 296 296 297 298 298 298 297 299 300 301 302 304 305 306 306 303 301 301 301 302 303 303 303 305 307 304 301 302 302 303 304 304 305 306 308 309 309 309 309
293 294 293 293 293 294 294 294 293 294 296 296 296 296 297 297 297 298 298 299 298 299 300 299 299 299 301 303 303 300 299 300 300 299 300 301 302 302 305 306 302 302 302 302 302 303 304 305 305 305 307 307 308 309
292 292 293 293 294 293 293 294 295 295 295 296 297 297 297 298 298 299 299 300 300 301 299 299 299 299 301 299 298 298 298 298 298 298 298 301 303 303 303 303 302 302 303 302 302 302 303 303 304 305 305 305 305 306
293 293 293 293 293 293 295 294 295 295 296 296 296 298 299 299 298 297 299 299 300 301 300 300 300 298 298 298 297 297 297 297 298 298 299 301 303 303 302 303 303 303 304 304 302 302 302 303 303 304 304 304 305 305
292 293 293 292 295 296 294 296 295 296 296 297 298 298 299 299 297 298 298 300 300 300 299 298 298 298 298 298 298 298 298 297 297 298 299 299 302 304 303 304 304 303 303 303 303 302 302 302 303 303 303 303 303 304
294 293 293 295 295 296 296 297 297 297 296 298 298 298 297 296 297 297 298 299 299 299 299 298 297 297 298 299 298 298 297 297 297 298 298 298 301 303 303 302 304 307 304 304 303 301 302 301 302 302 301 301 302 302
296 293 295 295 296 296 297 296 296 297 297 298 298 297 297 298 297 298 298 298 299 298 298 298 298 298 298 298 299 299 299 299 298 298 298 298 301 303 303 302 302 306 304 303 303 302 301 301 302 302 302 301 301 301
295 295 294 293 294 295 296 296 296 297 297 297 297 297 298 297 297 298 297 298 297 297 297 298 299 300 300 299 298 298 298 299 299 299 298 298 298 301 303 303 302 305 305 303 303 302 301 301 301 301 301 300 301 301
295 295 296 295 295 295 295 296 296 296 297 296 296 297 297 297 298 298 298 297 297 296 298 298 298 298 298 298 297 297 297 298 298 299 299 298 297 297 301 304 302 303 304 303 303 302 302 301 301 301 302 302 300 300
294 295 295 295 295 296 296 296 297 297 297 296 297 297 297 297 297 296 297 297 297 298 298 298 298 298 299 299 298 297 297 297 298 298 299 300 300 299 300 304 303 302 304 303 303 303 302 302 302 302 302 302 301 301
294 295 295 294 295 295 296 296 296 296 295 296 296 296 296 296 296 296 296 296 297 297 298 298 299 299 299 299 298 298 298 297 297 298 298 300 301 299 298 302 303 303 303 304 303 302 302 302 302 302 303 303 302 302
293 294 294 294 295 294 294 293 294 294 294 294 295 295 296 297 296 296 296 296 296 296 296 296 296 297 297 297 297 297 297 297 297 297 298 299 300 300 299 302 303 303 302 303 303 302 302 302 302 302 302 303 303 303
293 293 294 294 295 294 293 294 294 295 294 294 295 294 294 295 296 296 296 296 296 296 296 296 296 297 297 297 297 297 297 297 297 298 299 299 300 300 299 299 303 304 303 302 302 303 302 302 302 302 302 302 302 302
294 294 294 294 294 295 294 293 294 294 293 294 295 294 294 295 297 296 296 295 295 295 295 296 296 298 298 298 299 299 299 299 299 299 299 299 300 300 299 299 300 303 303 302 302 303 304 303 302 302 302 302 302 302

GFSWCAN_850_thetae_144.txt.gz
Theta_e
298 298 297 296 296 296 296 296 296 296 296 296 296 296 297 297 299 298 298 297 299 299 300 300 300 301 301 301 302 302 302 302 304 304 306 304 304 303 304 305 310 312 313 313 313 316 318 316 317 317 317 319 318 319
299 298 297 296 296 296 296 296 296 296 296 296 295 296 296 297 298 298 299 299 298 298 300 300 300 300 300 300 301 301 302 302 304 305 305 306 306 306 306 305 305 308 312 313 313 313 315 315 316 317 315 315 318 317
298 295 295 296 295 295 295 296 296 296 295 296 295 296 297 299 298 297 297 299 300 299 299 299 299 297 299 299 299 300 301 301 303 303 304 304 304 305 307 307 308 308 310 312 313 313 313 314 314 316 314 314 314 315
296 295 296 295 295 295 295 295 296 295 296 296 296 296 297 298 298 297 297 297 298 299 298 299 299 299 300 300 300 300 300 300 301 302 303 304 305 304 305 307 307 309 312 312 313 313 315 314 314 315 315 314 313 313
295 296 295 294 295 295 295 295 295 296 296 296 295 296 297 297 297 297 296 297 297 298 300 300 299 297 298 300 301 300 300 300 301 302 302 304 304 305 305 306 307 307 311 314 313 313 314 314 316 316 315 314 313 313
295 294 294 295 295 295 295 294 295 296 295 295 295 296 297 297 296 296 298 297 296 298 299 299 300 300 300 301 302 302 301 301 302 303 302 303 303 304 307 308 307 308 311 312 312 313 315 313 315 315 316 316 314 313
294 294 294 294 294 294 295 295 295 295 295 294 295 296 297 297 296 296 298 300 300 300 299 299 300 301 301 302 302 303 302 302 302 303 303 303 303 304 306 306 305 306 307 309 311 312 312 313 314 314 313 313 313 313
294 294 293 294 294 294 294 295 295 295 294 295 295 296 295 295 295 296 295 298 298 297 298 301 301 301 302 303 303 303 303 303 303 303 303 304 304 303 305 305 307 306 307 308 309 311 312 312 313 313 313 312 314 313
293 293 293 294 294 294 294 294 294 294 294 295 295 294 294 295 296 296 296 297 298 297 299 299 301 302 303 303 302 303 303 304 303 304 304 304 304 306 306 305 306 306 307 308 309 311 312 312 312 313 313 312 314 313
293 293 293 294 294 294 294 294 294 295 295 295 295 295 296 295 296 297 297 298 298 298 297 299 299 302 302 302 303 303 303 304 304 304 304 305 305 305 305 306 307 308 307 308 308 310 311 311 312 311 312 311 312 314
293 292 292 294 294 294 294 293 294 295 295 295 295 296 296 297 297 298 297 297 298 299 297 299 299 300 300 301 303 302 303 303 305 305 306 306 305 304 304 304 305 307 307 307 308 308 309 310 311 312 311 311 312 312
292 292 293 293 294 294 293 294 294 294 295 295 295 295 295 296 296 298 299 299 299 300 299 300 300 300 300 301 302 302 303 303 306 304 306 307 306 306 305 305 306 306 306 306 306 307 308 309 310 312 312 311 311 311
292 292 293 293 293 293 294 294 293 294 295 295 295 294 295 296 297 297 298 300 300 300 301 300 301 300 300 302 302 302 303 303 304 305 306 304 308 306 307 308 307 307 307 307 307 307 307 308 309 310 312 311 311 311
292 292 293 292 292 293 293 293 294 294 294 294 296 297 297 299 298 299 300 301 300 301 301 300 301 302 301 302 302 302 302 303 304 304 303 302 304 304 305 307 307 306 307 309 309 308 308 308 308 309 311 311 311 311
292 292 292 292 293 293 294 293 294 294 294 295 295 296 297 297 298 299 299 300 300 301 300 301 301 302 303 302 302 302 303 302 302 302 301 303 303 305 308 308 308 308 308 308 307 309 310 309 309 310 310 311 311 310
292 292 292 292 293 293 293 294 294 294 295 294 294 295 296 297 299 298 298 298 299 300 299 300 300 300 301 302 303 303 302 303 303 303 305 307 307 308 308 307 307 306 306 307 307 308 309 310 310 310 310 311 311 311
292 292 292 292 293 293 293 294 293 294 294 293 293 294 294 295 296 299 298 298 297 299 300 300 298 299 301 303 303 302 302 301 302 305 307 307 307 306 305 305 305 305 304 304 304 306 308 310 310 309 309 310 310 310
292 291 292 293 293 293 294 294 293 293 293 293 294 295 296 296 296 297 297 298 298 299 298 297 299 300 303 302 303 303 303 304 303 306 306 307 307 305 304 304 304 305 304 303 304 305 306 309 310 309 309 309 310 310
291 292 292 293 293 293 293 293 293 293 293 294 294 294 294 295 296 296 296 296 297 298 298 298 299 299 301 301 302 303 304 304 305 304 304 303 305 305 304 304 305 304 303 303 303 304 305 308 309 309 309 309 309 310
292 292 293 293 293 293 293 293 293 293 294 295 294 295 295 296 296 296 297 297 297 297 298 298 299 299 300 301 302 301 303 304 302 300 301 302 303 303 303 306 306 305 302 302 302 303 304 306 308 309 309 309 309 309
292 292 292 293 293 293 293 294 293 293 295 296 296 296 296 296 297 297 297 298 298 298 299 299 299 299 299 298 298 299 300 299 299 300 299 299 300 302 303 306 306 306 302 302 302 302 303 305 307 309 309 309 309 309
293 293 293 292 293 293 293 293 294 295 294 296 296 297 297 297 298 298 298 299 299 299 300 299 299 299 298 299 300 299 298 297 297 298 298 299 301 303 303 305 304 305 301 302 301 302 303 304 305 306 309 309 309 309
293 293 292 293 293 293 293 293 294 294 296 296 296 297 297 298 298 298 298 299 299 300 300 299 299 299 299 299 298 298 297 297 298 299 299 299 300 303 303 302 304 303 301 301 301 301 302 303 304 304 305 307 308 309
292 293 293 293 292 293 294 294 294 296 296 296 296 295 297 298 297 297 297 298 299 300 300 300 299 299 298 299 298 298 298 297 297 298 299 298 299 302 303 302 303 303 303 302 301 301 301 301 302 303 304 304 305 306
292 292 293 293 294 295 296 296 296 297 296 296 296 296 297 297 298 297 297 298 299 299 299 299 299 298 298 298 299 298 298 297 297 297 298 298 299 302 303 302 305 303 304 303 302 301 301 301 301 302 302 303 304 304
294 294 293 296 296 297 297 296 296 296 296 296 297 298 297 297 296 297 297 298 299 298 299 299 298 298 298 298 298 299 299 299 299 299 298 298 298 299 301 302 301 304 305 303 302 301 300 300 301 301 301 302 302 303
295 295 294 294 295 296 296 296 296 296 297 296 297 297 297 295 296 296 298 298 297 298 297 298 298 300 300 298 298 297 297 297 298 298 299 298 298 297 299 302 302 303 307 305 303 302 301 300 300 300 300 300 301 302
295 295 296 295 295 295 295 296 296 297 297 297 297 297 296 297 297 298 298 297 298 296 296 298 299 299 298 298 298 298 297 297 297 297 298 299 299 299 299 302 302 302 305 306 304 302 301 300 300 299 299 299 300 300
294 295 295 295 296 296 296 296 296 296 297 296 296 297 296 297 297 297 298 296 296 297 297 298 298 298 298 298 298 298 297 297 297 297 297 298 301 299 298 301 303 302 303 305 305 303 303 302 301 300 299 299 299 299
294 295 296 295 295 294 296 296 297 296 296 296 296 297 296 296 296 297 297 296 296 296 296 297 297 298 298 299 299 298 297 297 297 297 297 297 299 299 299 300 303 303 302 303 304 302 303 304 303 300 299 299 299 299
294 294 294 295 294 295 295 294 294 294 294 295 295 295 296 296 296 296 296 296 296 296 296 296 296 296 296 297 297 297 297 297 297 297 297 297 297 298 300 299 301 303 302 302 303 303 302 302 303 301 300 300 299 299
293 293 294 294 294 294 294 294 295 295 295 294 295 294 294 295 295 296 296 296 296 296 296 296 296 296 296 297 297 297 297 297 297 297 297 297 298 298 300 299 299 302 303 302 302 303 302 301 301 302 301 300 300 300
294 294 294 294 294 294 294 293 293 293 293 294 295 295 295 296 296 296 296 295 295 295 295 295 295 295 296 297 297 297 297 297 298 298 298 299 299 298 299 299 298 299 302 303 302 302 302 301 301 301 302 301 300 301

GFSWCAN_850_thetae_147.txt.gz
Theta_e
299 299 299 299 299 298 297 297 297 296 297 297 297 297 297 297 296 297 297 298 296 298 299 300 300 301 302 302 303 301 302 301 302 296 298 300 301 300 301 301 301 305 308 309 308 309 309 309 310 315 314 317 317 317
298 300 299 300 299 298 297 297 297 296 296 296 296 296 296 296 296 297 300 298 297 297 299 299 300 301 301 301 301 301 301 300 300 297 297 300 301 302 302 302 300 302 305 311 310 309 308 310 308 309 313 314 314 314
299 297 297 298 297 295 297 297 296 296 296 296 296 295 296 296 296 297 299 297 298 298 299 299 299 300 300 300 300 299 300 301 302 303 300 300 297 300 302 305 304 303 304 305 306 306 310 310 310 311 313 313 314 315
298 298 298 297 296 297 296 296 296 296 296 296 296 296 296 295 295 297 299 297 297 298 297 297 298 297 297 297 297 298 299 300 300 301 300 298 299 301 301 302 303 303 304 307 307 307 308 309 310 310 310 311 312 315
297 296 295 296 297 296 295 295 296 296 295 296 296 296 295 295 296 298 298 297 297 298 296 299 298 297 297 298 299 300 299 299 300 299 298 299 301 302 301 303 303 303 304 304 306 308 310 309 310 312 313 314 315 315
295 296 295 296 295 295 295 295 295 295 295 295 295 295 294 296 296 297 296 295 295 297 298 296 297 297 296 298 300 299 301 300 300 300 299 300 301 302 304 301 303 303 303 304 305 308 310 311 312 313 311 312 315 314
296 295 295 295 294 295 295 295 295 295 295 295 295 294 295 296 297 296 296 299 299 298 297 296 295 299 301 299 300 300 301 301 300 300 301 301 303 303 303 302 301 302 303 304 305 307 309 311 313 312 313 314 313 312
295 295 294 294 294 294 294 294 295 295 295 295 295 295 296 296 296 296 296 297 298 297 298 296 296 299 300 301 302 301 302 301 301 301 301 301 302 302 303 301 302 302 303 304 304 306 308 310 312 312 314 315 314 313
294 294 294 294 293 294 294 294 295 294 294 294 295 296 295 296 295 295 294 295 295 296 294 295 292 295 301 302 302 302 302 303 302 302 303 303 303 303 302 302 302 303 303 303 306 308 308 310 311 311 313 315 314 312
293 293 294 293 293 293 294 294 294 294 295 295 295 295 295 295 295 295 296 297 297 297 296 296 299 299 300 301 301 300 302 298 302 302 302 303 301 302 302 302 303 304 305 305 305 305 307 308 309 311 313 315 312 311
293 293 293 293 292 294 294 294 294 294 295 295 295 294 295 296 296 296 296 297 296 297 296 297 297 297 298 298 298 299 302 302 302 299 301 302 303 302 302 302 302 302 303 305 306 307 307 308 309 310 311 314 311 311
292 292 292 292 293 294 294 294 293 294 295 294 294 295 295 295 294 294 295 296 297 295 296 296 298 298 298 300 297 297 298 299 302 303 305 303 303 304 303 304 305 304 304 304 305 304 305 306 307 309 310 313 312 311
292 292 292 292 293 293 293 293 294 294 294 295 294 294 293 293 294 294 294 295 293 297 298 298 298 299 299 300 295 295 294 296 300 299 302 303 304 306 303 303 305 305 305 304 304 305 305 305 306 307 310 311 311 311
291 292 292 292 293 293 293 294 294 294 295 294 293 292 292 290 292 297 297 293 298 299 299 299 299 299 300 298 297 297 297 294 298 302 302 300 302 303 304 304 306 307 306 306 306 306 306 306 306 306 308 309 311 312
291 292 292 292 291 291 292 293 294 295 294 294 293 290 291 294 297 297 297 298 299 300 300 300 300 300 298 299 294 294 297 297 298 300 298 300 304 306 305 307 307 307 307 308 308 307 307 308 308 308 308 308 310 311
292 292 292 291 291 293 293 294 294 294 294 294 293 289 294 294 295 297 297 297 298 298 299 300 297 299 299 299 301 298 297 301 300 298 302 305 306 307 306 306 306 307 306 306 306 306 307 307 308 309 309 307 310 311
292 292 292 291 293 293 293 295 294 293 294 292 292 293 293 294 295 295 297 297 296 297 293 296 298 294 293 294 301 297 300 300 299 301 302 303 305 306 305 305 305 305 305 305 304 304 304 306 307 309 309 310 310 311
292 292 292 292 293 293 295 294 293 293 292 292 291 293 294 294 296 296 296 298 298 297 298 292 295 294 293 297 300 298 299 301 303 303 303 304 305 306 305 305 304 304 305 305 304 304 304 305 306 308 310 309 310 311
292 292 292 293 293 293 293 293 293 292 292 292 293 293 293 294 294 295 295 296 297 298 297 297 296 297 296 297 298 300 301 301 301 301 301 303 301 302 304 305 304 306 306 306 304 303 304 304 305 307 310 309 309 310
292 292 292 293 293 292 292 292 292 292 291 294 293 293 294 295 295 295 296 296 296 296 294 295 296 295 297 299 299 299 299 298 299 300 301 300 300 302 303 303 303 306 306 305 303 303 303 304 305 307 309 309 309 309
292 292 293 294 293 293 293 291 291 291 293 295 295 295 295 295 296 296 296 296 297 297 295 297 297 297 297 299 299 299 298 298 300 300 299 298 298 298 302 303 303 305 305 306 303 303 303 303 304 306 308 309 309 309
293 292 294 293 292 292 292 292 293 294 294 294 295 296 295 293 295 297 297 297 297 297 297 297 298 298 299 299 299 299 299 299 298 297 297 298 299 299 301 302 303 304 304 305 302 302 302 302 303 305 307 309 309 309
292 292 292 292 292 292 292 293 293 294 290 289 295 290 288 292 296 298 295 298 298 298 298 298 299 298 298 298 299 299 298 298 298 298 298 298 298 300 302 303 302 302 302 303 301 301 301 302 303 304 306 308 309 309
293 292 292 291 292 287 292 293 293 295 295 291 290 290 290 291 297 293 295 295 297 297 298 299 299 299 299 298 298 299 298 298 297 297 298 298 298 302 302 302 301 301 300 301 301 301 301 301 302 304 305 306 308 309
291 289 291 290 292 291 292 290 293 295 294 295 295 292 292 296 297 297 297 295 297 298 298 299 300 300 299 299 298 298 298 298 298 298 298 298 299 303 301 300 300 300 300 301 301 301 300 301 302 303 304 305 306 308
285 291 290 288 290 293 293 293 295 295 296 296 294 294 296 296 296 296 295 297 298 298 298 299 299 299 298 298 298 299 298 297 298 298 299 299 299 299 299 299 300 300 300 301 300 301 300 300 301 302 303 303 304 306
290 293 292 293 295 295 296 295 295 295 295 292 291 291 294 296 294 294 297 298 297 298 297 298 298 298 299 299 297 297 297 297 297 297 298 299 299 299 299 300 301 300 300 301 302 301 301 300 301 301 301 302 303 304
294 295 295 294 294 294 292 295 295 295 294 295 294 294 292 293 294 297 298 297 297 296 297 298 299 299 299 297 298 298 298 297 297 297 297 299 300 299 299 301 301 301 302 302 301 301 300 300 300 300 301 301 302 302
294 295 295 295 295 294 294 295 294 295 296 295 294 295 295 297 297 297 297 297 296 296 296 297 298 298 297 297 298 298 298 298 297 297 297 297 297 298 299 300 302 301 302 303 301 302 302 301 300 300 300 300 300 301
293 294 295 295 294 294 294 296 296 296 296 296 296 296 296 297 297 296 296 296 296 296 296 296 296 297 297 298 298 297 297 297 297 297 297 297 297 297 297 299 300 302 301 302 303 302 303 303 301 299 299 299 299 299
294 294 294 294 292 294 294 294 294 294 295 295 295 295 295 295 295 295 295 295 295 295 296 296 296 296 296 296 296 296 296 296 296 296 297 297 297 297 297 299 299 300 302 301 302 302 302 303 303 300 299 298 298 299
293 293 293 290 290 294 294 294 294 294 294 294 294 294 294 294 294 296 296 295 295 295 295 295 295 295 295 295 296 296 296 297 297 297 297 297 297 297 297 298 299 299 300 302 301 303 302 302 302 302 299 299 299 299
293 293 293 292 290 293 293 292 293 292 292 292 293 294 294 295 295 296 296 295 295 296 296 295 295 294 294 295 295 296 296 297 297 298 298 297 297 298 298 298 299 299 298 301 301 301 304 302 302 303 302 300 299 299